Stations météo

réclame
Mon MeteoGroup
Umeå Flygplats, Suède (2286): Température de l'air & dewpoint: 19.02.2018 10:00:00 - 25.02.2018 10:00:00 (CET)Umeå Flygplats, Suède (2286): Vitesse du vent: 19.02.2018 10:00:00 - 25.02.2018 10:00:00 (CET)Umeå Flygplats, Suède (2286): Direction du vent: 19.02.2018 10:00:00 - 25.02.2018 10:00:00 (CET)Umeå Flygplats, Suède (2286): reduced air pressure: 19.02.2018 10:00:00 - 25.02.2018 10:00:00 (CET)Umeå Flygplats, Suède (2286): visibility: 19.02.2018 10:00:00 - 25.02.2018 10:00:00 (CET)
Date & Time tt [°C] td [°C] ff [km/h] ff [knt] dd ppp [hPa] vv [km]
25.02.2018 10:00:00 -14,1 -16,7 13 7 NNW 1046,3 10
25.02.2018 09:00:00 -15,8 -17,6 13 7 NW 1046,4 10
25.02.2018 08:00:00 -20,7 -22,7 11 6 NW 1046,4 10
25.02.2018 07:00:00 -22,5 -24,7 11 6 NW 1046,8 10
25.02.2018 06:00:00 -21,3 -23,4 13 7 WNW 1046,5 10
25.02.2018 05:00:00 -20,5 -22,2 9 5 NW 1046,6 10
25.02.2018 04:00:00 -20,2 -22,1 8 4 NW 1046,6 10
25.02.2018 03:00:00 -21,7 -23,7 9 5 NW 1046,4 10
25.02.2018 02:00:00 -22,9 -25,0 13 7 NW 1046,3 10
25.02.2018 01:00:00 -20,1 -22,1 9 5 NNW 1046,7 10
25.02.2018 00:00:00 -18,2 -20,2 9 5 NNW 1046,3 10
24.02.2018 23:00:00 -16,5 -18,0 5 3 NNW 1045,9 10
24.02.2018 22:00:00 -18,4 -20,3 13 7 NW 1045,7 10
24.02.2018 21:00:00 -16,4 -18,5 11 6 N 1045,7 10
24.02.2018 20:00:00 -17,2 -19,3 9 5 NNW 1045,4 10
24.02.2018 19:00:00 -15,1 -17,1 9 5 N 1045,1 10
24.02.2018 18:00:00 -13,8 -16,2 11 6 N 1044,8 10
24.02.2018 17:00:00 -13,0 -15,9 8 4 NNE 1044,6 10
24.02.2018 16:00:00 -11,4 -14,6 11 6 NNE 1044,5 10
24.02.2018 15:00:00 -11,1 -14,5 9 5 NE 1044,2 10
24.02.2018 14:00:00 -10,8 -14,0 5 3 N 1044,2 10
24.02.2018 13:00:00 -11,5 -14,2 5 3 NNE 1044,1 10
24.02.2018 12:00:00 -12,5 -14,5 8 4 NE 1044,1 10
24.02.2018 11:00:00 -14,0 -15,4 5 3 N 1044,0 10
24.02.2018 10:00:00 -15,9 -17,4 5 3 NW 1043,9 10
24.02.2018 09:00:00 -20,2 -22,2 8 4 NW 1043,7 10
24.02.2018 08:00:00 -23,2 -25,7 5 3 NW 1043,4 10
24.02.2018 07:00:00 -24,2 -26,7 5 3 NW 1042,9 10
24.02.2018 06:00:00 -24,4 -26,9 4 2 NW 1042,4 10
24.02.2018 05:00:00 -23,2 -25,6 4 2 N 1041,7 10
24.02.2018 04:00:00 -22,7 -24,8 4 2 NW 1041,5 10
24.02.2018 03:00:00 -20,5 -22,1 5 3 NW 1041,3 10
24.02.2018 02:00:00 -20,5 -22,2 5 3 NW 1041,3 10
24.02.2018 01:00:00 -19,9 -21,6 9 5 NW 1040,7 10
24.02.2018 00:00:00 -19,5 -21,2 8 4 NNW 1040,3 10
23.02.2018 23:00:00 -16,7 -18,8 9 5 NNW 1040,1 10
23.02.2018 22:00:00 -18,9 -20,8 9 5 NW 1039,5 10
23.02.2018 21:00:00 -16,3 -18,1 9 5 NW 1039,0 10
23.02.2018 20:00:00 -15,3 -17,2 11 6 N 1038,5 10
23.02.2018 19:00:00 -14,6 -16,8 9 5 NNE 1038,1 10
23.02.2018 18:00:00 -13,3 -15,7 9 5 NNE 1037,5 10
23.02.2018 17:00:00 -11,9 -14,6 11 6 NNE 1037,0 10
23.02.2018 16:00:00 -10,7 -13,9 9 5 NNE 1036,2 10
23.02.2018 15:00:00 -10,1 -13,7 11 6 N 1035,7 10
23.02.2018 14:00:00 -10,2 -14,1 13 7 NNE 1035,3 10
23.02.2018 13:00:00 -10,2 -14,1 15 8 N 1034,8 10
23.02.2018 12:00:00 -9,5 -12,3 13 7 NNE 1034,2 10
23.02.2018 11:00:00 -9,1 -11,8 11 6 NNE 1033,6 10
23.02.2018 10:00:00 -10,2 -11,8 8 4 NNW 1033,0 10
23.02.2018 09:00:00 -12,7 -14,4 8 4 NNW 1032,6 8
23.02.2018 08:00:00 -13,6 -15,2 5 3 NW 1032,0 10
23.02.2018 07:00:00 -15,6 -17,4 4 2 NW 1031,4 10
23.02.2018 06:00:00 -16,5 -18,3 5 3 NW 1030,8 10
23.02.2018 05:00:00 -18,7 -20,6 5 3 N 1030,4 10
23.02.2018 04:00:00 -19,6 -21,6 8 4 NW 1030,3 10
23.02.2018 03:00:00 -19,6 -21,6 9 5 NNW 1029,9 10
23.02.2018 02:00:00 -20,8 -23,1 9 5 NW 1029,7 10
23.02.2018 01:00:00 -20,6 -22,9 8 4 NNW 1029,4 10
23.02.2018 00:00:00 -19,5 -21,2 8 4 NNW 1029,2 10
22.02.2018 23:00:00 -18,2 -20,1 9 5 NNW 1029,0 10
22.02.2018 22:00:00 -17,8 -19,6 9 5 NNW 1028,9 10
22.02.2018 21:00:00 -18,3 -20,1 9 5 NNW 1028,8 10
22.02.2018 20:00:00 -16,6 -18,3 9 5 NNW 1028,4 10
22.02.2018 19:00:00 -18,2 -20,0 9 5 NW 1028,4 10
22.02.2018 18:00:00 -18,7 -20,3 4 2 WNW 1028,4 10
22.02.2018 17:00:00 -14,4 -15,7 4 2 - 1028,4 10
22.02.2018 16:00:00 -13,0 -14,8 8 4 W 1028,5 10
22.02.2018 15:00:00 -12,0 -14,3 8 4 WNW 1028,7 10
22.02.2018 14:00:00 -11,8 -14,0 8 4 WNW 1028,9 10
22.02.2018 13:00:00 -9,0 -12,0 0 0 N 1029,1 10
22.02.2018 12:00:00 -11,3 -13,8 2 1 N 1029,3 10
22.02.2018 11:00:00 -15,6 -17,5 4 2 NNW 1029,5 10
22.02.2018 10:00:00 -17,2 -19,0 5 3 NNW 1030,0 10
22.02.2018 09:00:00 -21,2 -23,5 5 3 NW 1030,1 10
22.02.2018 08:00:00 -21,2 -23,5 4 2 NW 1029,8 10
22.02.2018 07:00:00 -20,1 -22,2 5 3 NNW 1030,1 10
22.02.2018 06:00:00 -24,0 -26,5 4 2 NNW 1030,1 1,1
22.02.2018 05:00:00 -25,1 -28,0 0 0 N 1030,3 5
22.02.2018 04:00:00 -24,5 -27,0 4 2 NNW 1030,3 0,2
22.02.2018 03:00:00 -25,0 -27,7 5 3 N 1030,3 0,8
22.02.2018 02:00:00 -27,1 -29,9 4 2 WNW 1030,4 10
22.02.2018 01:00:00 -26,8 -29,7 4 2 WNW 1030,4 10
22.02.2018 00:00:00 -26,5 -29,2 2 1 - 1030,5 10
21.02.2018 23:00:00 -24,6 -27,1 0 0 N 1030,5 10
21.02.2018 22:00:00 -25,9 -28,6 4 2 WNW 1030,4 10
21.02.2018 21:00:00 -24,0 -26,3 0 0 N 1030,4 10
21.02.2018 20:00:00 -23,4 -25,6 0 0 N 1030,0 10
21.02.2018 19:00:00 -22,3 -24,5 0 0 N 1029,8 10
21.02.2018 18:00:00 -21,5 -23,7 2 1 ESE 1029,4 10
21.02.2018 17:00:00 -17,0 -18,2 4 2 - 1029,1 10
21.02.2018 16:00:00 -14,1 -15,4 8 4 SSE 1029,0 10
21.02.2018 15:00:00 -10,2 -11,7 0 0 N 1029,4 10
21.02.2018 14:00:00 -10,9 -12,6 0 0 N 1029,6 10
21.02.2018 13:00:00 -10,6 -11,9 0 0 N 1029,8 10
21.02.2018 12:00:00 -13,9 -15,3 0 0 N 1030,0 10
21.02.2018 11:00:00 -16,8 -18,4 5 3 NW 1030,0 5
21.02.2018 10:00:00 -18,3 -20,1 5 3 NW 1030,0 4,1
21.02.2018 09:00:00 -19,5 -21,4 5 3 NW 1030,1 3,0
21.02.2018 08:00:00 -20,2 -22,2 4 2 - 1029,9 4,1
21.02.2018 07:00:00 -20,7 -22,8 5 3 NNW 1029,9 7
21.02.2018 06:00:00 -20,9 -23,0 4 2 NNW 1030,0 6
21.02.2018 05:00:00 -23,7 -25,9 4 2 NNW 1030,1 10
21.02.2018 04:00:00 -21,5 -23,6 5 3 NNW 1030,1 10
21.02.2018 03:00:00 -25,5 -28,2 4 2 NNW 1030,3 10
21.02.2018 02:00:00 -25,1 -27,7 4 2 NW 1030,4 10
21.02.2018 01:00:00 -20,7 -22,7 5 3 N 1030,5 10
21.02.2018 00:00:00 -23,5 -26,0 5 3 NNW 1030,8 10
20.02.2018 23:00:00 -24,6 -27,3 5 3 NNW 1030,9 10
20.02.2018 22:00:00 -22,8 -25,0 4 2 N 1030,8 10
20.02.2018 21:00:00 -22,3 -24,5 5 3 NW 1030,6 10
20.02.2018 20:00:00 -21,7 -23,9 4 2 NNW 1030,6 10
20.02.2018 19:00:00 -20,9 -22,9 2 1 WNW 1030,8 10
20.02.2018 18:00:00 -19,8 -21,5 0 0 N 1030,7 10
20.02.2018 17:00:00 -16,9 -18,4 0 0 N 1030,6 10
20.02.2018 16:00:00 -14,3 -16,1 5 3 SE 1030,7 10
20.02.2018 15:00:00 -12,1 -14,1 5 3 SW 1030,8 10
20.02.2018 14:00:00 -9,1 -11,9 0 0 N 1030,9 10
20.02.2018 13:00:00 -10,5 -12,2 0 0 N 1031,3 10
20.02.2018 12:00:00 -12,6 -14,2 5 3 W 1031,4 10
20.02.2018 11:00:00 -15,2 -16,7 5 3 WNW 1031,6 10
20.02.2018 10:00:00 -16,9 -18,5 0 0 N 1031,9 10
20.02.2018 09:00:00 -18,7 -20,9 5 3 NNW 1032,0 10
20.02.2018 08:00:00 -20,0 -22,1 5 3 NNW 1031,8 10
20.02.2018 07:00:00 -21,2 -23,3 5 3 NW 1031,6 10
20.02.2018 06:00:00 -18,5 -20,3 4 2 NNW 1031,6 10
20.02.2018 05:00:00 -18,8 -20,6 8 4 NNW 1031,8 10
20.02.2018 04:00:00 -20,7 -22,6 4 2 NW 1032,1 10
20.02.2018 03:00:00 -20,1 -21,8 5 3 WNW 1032,1 10
20.02.2018 02:00:00 -19,5 -21,2 4 2 NW 1032,4 10
20.02.2018 01:00:00 -18,1 -19,7 5 3 NNW 1032,4 10
20.02.2018 00:00:00 -17,2 -18,8 9 5 NW 1032,6 10
19.02.2018 23:00:00 -14,6 -15,4 8 4 NW 1032,5 10
19.02.2018 22:00:00 -14,8 -15,9 8 4 NW 1032,4 10
19.02.2018 21:00:00 -11,2 -12,7 5 3 N 1032,1 10
19.02.2018 20:00:00 -10,1 -11,8 8 4 N 1032,2 10
19.02.2018 19:00:00 -10,1 -11,8 8 4 N 1032,3 8
19.02.2018 18:00:00 -9,7 -11,3 5 3 NNE 1032,2 10
19.02.2018 17:00:00 -8,5 -10,0 9 5 NE 1032,0 10
19.02.2018 16:00:00 -7,8 -9,9 8 4 NE 1031,6 10
19.02.2018 15:00:00 -6,8 -9,8 8 4 NE 1031,3 10
19.02.2018 14:00:00 -6,8 -9,8 8 4 NNE 1031,0 10
19.02.2018 13:00:00 -7,3 -10,0 11 6 NNE 1031,1 10
19.02.2018 12:00:00 -7,1 -10,0 9 5 NE 1031,0 10
19.02.2018 11:00:00 -8,2 -10,6 8 4 N 1030,7 10
19.02.2018 10:00:00 -10,1 -11,8 9 5 NNW 1030,3 10

tt = Température de l'air
td = dewpoint
ff = Vitesse du vent
dd = Direction du vent
ppp = reduced air pressure
vv = visibility

stations d'obs. à proximité